Location: アルンシュタイン
(50.0000°N, 10.0000°E)
Time: 18:55:21
(UTC+02:00)

Tiros 1 despin weight - Visible Passes

Search period start: 11 September 2024 00:00
Search period end: 21 September 2024 00:00
Orbit: 573 x 617 km, 48.2° (Epoch: 11 September)

Date Brightness Start Highest point End Pass type
(mag) Time Alt. Az. Time Alt. Az. Time Alt. Az.
11 Sep ? 05:15:53 10° S 05:18:26 15° SE 05:20:58 10° ESE visible
12 Sep ? 05:23:49 10° SSW 05:27:14 22° SE 05:30:44 10° E visible
13 Sep ? 05:32:44 13° SSW 05:36:05 31° SSE 05:40:06 10° E visible
14 Sep ? 04:04:59 14° SE 04:04:59 14° SE 04:07:05 10° ESE visible
14 Sep ? 05:41:34 15° SW 05:45:00 41° SSE 05:49:18 10° E visible
15 Sep ? 04:13:45 21° SE 04:13:45 21° SE 04:16:53 10° E visible
15 Sep ? 05:50:20 15° SW 05:53:56 53° SSE 05:58:23 10° E visible
16 Sep ? 04:22:27 29° SE 04:22:27 29° SE 04:26:13 10° E visible
16 Sep ? 05:59:02 14° WSW 06:02:55 63° S 06:07:26 10° E visible
17 Sep ? 04:31:07 40° SSE 04:31:07 40° SSE 04:35:23 10° E visible
17 Sep ? 06:07:42 12° WSW 06:11:54 70° S 06:16:27 10° E visible
18 Sep ? 04:39:45 51° S 04:40:00 51° SSE 04:44:26 10° E visible
18 Sep ? 06:16:21 10° W 06:20:53 71° S 06:25:25 10° E visible
19 Sep ? 03:11:47 12° E 03:11:47 12° E 03:12:11 10° E visible
19 Sep ? 04:48:21 56° SSW 04:48:55 62° SSE 04:53:25 10° E visible
19 Sep ? 06:25:19 10° W 06:29:50 67° S 06:34:22 10° ESE visible
20 Sep ? 03:20:22 15° E 03:20:22 15° E 03:21:17 10° E visible
20 Sep ? 04:56:57 53° SW 04:57:50 69° S 05:02:22 10° E visible
